{"data":{"norad_id":63199,"intl_designator":"2025-048S","name":"STARLINK-32931","alt_names":[],"object_type":"PAYLOAD","status":"ACTIVE","operator":null,"country":"US","launch_date":"2025-03-13","launch_site_code":"AFETR","launch_vehicle":null,"mission":null,"orbit_class":"UNKNOWN","rcs_meters":null,"size_class":null,"mass_kg":null,"dimensions":null,"purposes":["comms"],"wikipedia_slug":null,"has_3d_model":false,"image_url":null,"decayed_at":null,"tle_current":{"epoch":"2026-09-21T17:25:47.376192Z","epoch_age_seconds":56279,"freshness":"FRESH","line1":"1 63199U 25048S   26264.72624278  .00020941  00000+0  76805-3 0  9999","line2":"2 63199  43.0014  58.1881 0001264 266.7926  93.2781 15.27592913 87070","mean_motion":15.27592913,"eccentricity":0.0001264,"inclination_deg":43.0014,"raan_deg":58.1881,"arg_perigee_deg":266.7926,"mean_anomaly_deg":93.2781,"bstar":0.00076805,"rev_number":8707,"period_min":94.265951860959,"perigee_km":482.14318110943,"apogee_km":483.87767917977,"semimajor_km":6861.1474301446,"source":"CELESTRAK","updated_at":"2026-09-22T09:00:49.797971Z"}}}